THORAD AGENA D DEB

Satellite information

Favourite Embed

Satellite Type and Status

DEBRISIN ORBIT

Key statistics

Satellite THORAD AGENA D DEB at a glance.

Uptime

20242

Days in orbit

Revolutions

≈ 14.0

Per day

Orbit

SSO

Sun Synchronous Orbit

Inclination

98.8

Latest

Satellite identification and parameters

Extended collection of information and parameters for THORAD AGENA D DEB.

Object identification

Identified? True

Debris? True

Object name: THORAD AGENA D DEB

International designator: 1970-025PZ

Object number (NORAD): 19391

Object ID (CCSDS): 19391

Country: UNITED STATES OF AMERICA (US)

Current information (Y/N): Y

RCS size: SMALL

Orbital parameters

Period: 102.877 minutes

Inclination: 98.761 deg

SMA: 7272.877 km

Apoapsis: 1001.542 km

Periapsis: 787.943 km

RAAN: 110.8919 deg

Eccentricy: 0.01468464

Argument of periapsis: 10.9368 deg

Mean anomaly: 141.6244 deg

Mean motion: 13.99727117 rev/day

Mean motion (dot): 0.00002803 rev/day2

B* drag term: 0.0017703449 1/REarth

Two-line elements (TLE)

Creation date: Sept. 6, 2025, 10:23 a.m.

Reference frame: TEME

Reference center: EARTH

Epoch: Sept. 6, 2025, 2:03 a.m. UTC

TLE line 0: 0 THORAD AGENA D DEB

TLE line 1: 1 19391U 70025PZ 25249.08583619 .00002803 00000-0 17703-2 0 9992

TLE line 2: 2 19391 98.7610 110.8919 0146846 10.9368 141.6244 13.99727117879329

Live tracking on map

Real-time ground track for satellite THORAD AGENA D DEB.

In-orbit conjunctions

A list of the most updated potential collisions computed for object THORAD AGENA D DEB.

Target Orbit TCA Probability of collision Miss distance Type
SL-8 R/B LEO 2025-06-10 15:21:29 0.0001425231 203.0 (m) ROCKET BODY
COSMOS 1634 LEO 2024-11-29 22:03:15 0.0001990554 360.0 (m) PAYLOAD

Associated space launch

Meteorological research and development satellite

THORAD AGENA D DEB was lifted into orbit during the mission ‘Thorad SLV-2G Agena D | Nimbus 4’, on board a Thorad SLV-2G Agena D space rocket.

The launch took place on April 8, 1970, 8:17 a.m. from Space Launch Complex 2E.

For more information about the launch, click the button.

Launch to space Thorad SLV-2G Agena D | Nimbus 4
Thorad SLV-2G Agena D | Nimbus 4

Agency: N/A

Status: Launch Successful

Launch date: April 8, 1970, 8:17 a.m. UTC

Rocket: Thorad SLV-2G Agena D

Launch pad: Space Launch Complex 2E

Location: Vandenberg SFB, CA, USA

...

Latest news about this satellite

There are no fresh news available about this satellite. Check back as we update our databases every day.


Newsletter sign-up

Weekly statistics, charts and insights to help you stay on top of the space industry.